Weather History for Kirksville, MO

Change the Weather History Date:

Wednesday, January 16, 2013

  Actual Average Record
Temperature  
Mean Temperature 27 °F 26 °F  
Max Temperature 41 °F 35 °F 65 °F (2012)
Min Temperature 13 °F 17 °F -19 °F (1977)
Degree Days  
Heating Degree Days 38 39  
Month to date heating degree days 599 624  
Since 1 July heating degree days 2841 2967  
Cooling Degree Days 0 0  
Month to date cooling degree days 0 0  
Year to date cooling degree days 0 0  
Moisture  
Dew Point 18 °F    
Average Humidity 62    
Maximum Humidity 80    
Minimum Humidity 44    
Precipitation  
Precipitation 0.00 in 0.05 in 0.57 in (1980)
Month to date precipitation 0.29 0.51  
Year to date precipitation 0.29 0.51  
Sea Level Pressure  
Sea Level Pressure 30.09 in    
Wind  
Wind Speed 9 mph (SW)    
Max Wind Speed 17 mph    
Max Gust Speed 24 mph    
Visibility 10 miles    
Events      
T = Trace of Precipitation, MM = Missing Value Source: NWS Daily Summary

Daily Weather History Graph

Daily Weather History Graph

Search for Another Location

Airport:

Trip Planner

Search our weather history database for the weather conditions in past years. The results will help you decide how hot, cold, wet, or windy it might be!

Date:

Astronomy

Jan. 16, 2013 Rise Set
Actual Time 7:29 AM CST 5:10 PM CST
Civil Twilight 7:00 AM CST 5:40 PM CST
Nautical Twilight 6:26 AM CST 6:13 PM CST
Astronomical Twilight 5:54 AM CST 6:46 PM CST
Moon 10:06 AM CST (1/16) 11:02 PM CST (1/16)
Length of Visible Light 10h 40m
Length of Day
9h 40m
Waxing Crescent, 28% of the Moon is Illuminated
Jan 16
Waxing Crescent
Jan 18
First Quarter
Jan 26
Full
Feb 3
Last Quarter
Feb 10
New

Hourly Weather History & Observations

Time (CST) Temp. Windchill Dew Point Humidity Pressure Visibility Wind Dir Wind Speed Gust Speed Precip Events Conditions
12:55 AM 16.0 °F 7.4 °F 8.1 °F 71% 30.19 in 10.0 mi SW 5.8 mph - N/A   Clear
1:55 AM 16.0 °F 7.4 °F 9.0 °F 74% 30.18 in 10.0 mi SW 5.8 mph - N/A   Clear
2:55 AM 15.1 °F 5.2 °F 9.0 °F 77% 30.16 in 10.0 mi SSW 6.9 mph - N/A   Unknown
3:55 AM 17.1 °F 7.6 °F 10.9 °F 77% 30.14 in 10.0 mi SW 6.9 mph - N/A   Clear
4:55 AM 16.0 °F 7.4 °F 10.0 °F 77% 30.12 in 10.0 mi SW 5.8 mph - N/A   Clear
5:55 AM 15.1 °F 7.7 °F 10.0 °F 80% 30.10 in 10.0 mi SW 4.6 mph - N/A   Clear
6:55 AM 16.0 °F 6.3 °F 10.0 °F 77% 30.07 in 10.0 mi SSW 6.9 mph - N/A   Clear
7:55 AM 19.0 °F 9.0 °F 10.9 °F 71% 30.07 in 10.0 mi SW 8.1 mph - N/A   Clear
8:55 AM 21.9 °F 11.0 °F 14.0 °F 72% 30.08 in 10.0 mi SW 10.4 mph - N/A   Clear
9:55 AM 28.0 °F 18.6 °F 17.1 °F 63% 30.07 in 10.0 mi SW 10.4 mph 18.4 mph N/A   Clear
10:55 AM 32.0 °F 22.1 °F 18.0 °F 56% 30.05 in 10.0 mi SW 13.8 mph 19.6 mph N/A   Clear
11:55 AM 37.0 °F 28.1 °F 18.0 °F 46% 30.01 in 10.0 mi SW 15.0 mph 20.7 mph N/A   Clear
12:55 PM 39.9 °F 32.5 °F 19.9 °F 45% 29.99 in 10.0 mi WSW 12.7 mph 20.7 mph N/A   Clear
1:55 PM 39.9 °F 32.9 °F 21.9 °F 49% 30.00 in 10.0 mi WSW 11.5 mph 19.6 mph N/A   Mostly Cloudy
2:55 PM 39.0 °F 30.6 °F 21.9 °F 50% 30.01 in 10.0 mi SW 15.0 mph - N/A   Mostly Cloudy
3:55 PM 39.9 °F 33.9 °F 23.0 °F 51% 30.03 in 10.0 mi WSW 9.2 mph - N/A   Clear
4:55 PM 37.9 °F 32.7 °F 23.0 °F 55% 30.05 in 10.0 mi SW 6.9 mph - N/A   Clear
5:55 PM 34.0 °F 27.2 °F 23.0 °F 64% 30.07 in 10.0 mi SSW 8.1 mph - N/A   Clear
6:55 PM 33.1 °F 26.9 °F 23.0 °F 66% 30.11 in 10.0 mi SW 6.9 mph - N/A   Clear
7:55 PM 33.1 °F 26.9 °F 24.1 °F 70% 30.12 in 10.0 mi SW 6.9 mph - N/A   Mostly Cloudy
8:55 PM 33.1 °F 26.1 °F 24.1 °F 70% 30.12 in 10.0 mi SW 8.1 mph - N/A   Scattered Clouds
9:55 PM 33.1 °F 28.7 °F 25.0 °F 72% 30.12 in 10.0 mi WSW 4.6 mph - N/A   Mostly Cloudy
10:55 PM 33.1 °F 26.1 °F 25.0 °F 72% 30.14 in 10.0 mi West 8.1 mph - N/A   Overcast
11:55 PM 32.0 °F 25.6 °F 26.1 °F 79% 30.17 in 10.0 mi NW 6.9 mph - N/A   Clear